Regional Weather Roundup
Issued by NWS

Home | Current Version | Previous Version | Text Only | Print | Product List | Glossary On
Versions: 1 2 3 4 5 6 7 8 9 10 11 12 13 14 15 16 17 18 19 20 21 22 23 24 25 26 27
000
ASUS45 KSLC 211010
RWRUT

UTAH REGIONAL WEATHER ROUNDUP
NATIONAL WEATHER SERVICE SALT LAKE CITY UT
300 AM MST TUE NOV 21 2017

UTZ001>011-023>025-211100-

NORTHERN UTAH

CITY           SKY/WX    TMP DP  RH WIND       PRES   REMARKS
BRIGHAM CITY   CLOUDY    41  36  82 W3        30.23R
HILL AFB       CLOUDY    46  31  56 CALM      30.22R
LOGAN          LGT RAIN  42  34  73 N7        30.22R
OGDEN          CLOUDY    45  34  65 S6        30.21R
SALT LAKE CITY CLOUDY    44  36  73 SW6       30.21R
TOOELE VALLEY  CLOUDY    39  36  87 S6        30.23R WCI  35
WENDOVER       CLOUDY    37  28  70 SW3       30.23R
HEBER CITY     MIX PCPN  41  32  70 E3        30.24R
WEST JORDAN    CLOUDY    42  37  83 CALM      30.22R

$$

UTZ011>015-024>027-211100-

CENTRAL/NORTHEAST UTAH

CITY           SKY/WX    TMP DP  RH WIND       PRES   REMARKS
PROVO AIRPORT  CLOUDY    42  37  82 CALM      30.24R
MOAB/CANYONLAN PTCLDY    31  11  43 CALM      30.26R
DELTA          CLOUDY    36  23  60 N5        30.25R WCI  32
PRICE          PTCLDY    28   9  44 CALM      30.24R
ROOSEVELT      CLOUDY    30  18  59 CALM      30.22S
VERNAL         CLOUDY    34  20  56 SW3       30.19S

$$

UTZ013>016-019>022-027-211100-

SOUTHERN UTAH

CITY           SKY/WX    TMP DP  RH WIND       PRES   REMARKS
BRYCE CANYON   PTCLDY    30  11  45 W15       30.31R WCI  19
CEDAR CITY     CLEAR     34  17  50 S5        30.24R WCI  30
MILFORD        CLEAR     34  17  50 SE7       30.25R WCI  28
ST GEORGE      CLOUDY    41   8  25 SE7       30.23R
HANKSVILLE     PTCLDY    25   7  46 CALM      30.28S
BLANDING         N/A     34   8  34 NE5       30.30R WCI  29

$$

REGIONAL REPORTS     COLORADO/ARIZONA

CITY           SKY/WX    TMP DP  RH WIND       PRES   REMARKS
CRAIG, CO      CLOUDY    37  27  67 E8        30.19R WCI  31
GRAND JUNCTION CLOUDY    34  19  54 CALM      30.28R
RIFLE, CO      CLOUDY    33  28  81 CALM      30.28R
MONTROSE, CO   CLOUDY    32  25  75 CALM      30.30R
CORTEZ, CO     CLOUDY    28  12  51 NE9       30.23R WCI  19
COLORADO CITY    N/A     30   9  40 SE3       30.28R
PAGE, AZ       PTCLDY    39  16  39 CALM      30.23R
GRAND CANYON   HAZE      26   3  37 E3        30.29R VSB 3/4
KINGMAN, AZ    MOCLDY    47  15  27 E8        30.18S
FLAGSTAFF, AZ  CLEAR     28   8  43 NE3       30.27R

$$

REGIONAL REPORTS    NEVADA/IDAHO/WYOMING

CITY           SKY/WX    TMP DP  RH WIND       PRES   REMARKS
LAS VEGAS, NV  MOCLDY    51  10  19 SW5       30.16S
ELY, NY        CLOUDY    43  23  45 S6        30.30R
ELKO, NV       CLOUDY    43  38  82 CALM      30.25R
POCATELLO, ID  CLOUDY    45  41  86 SW18      30.17R
BURLEY, ID     CLOUDY    46  42  86 S6        30.18R
FORT BRIDGER,  PTSUNNY   39  37  94 W23G30    30.22R WCI  28
EVANSTON, WY   LGT RAIN  38  35  89 SW13      30.25R WCI  30
ROCK SPRINGS,  CLOUDY    37  32  82 W21G30    30.15R WCI  26
KEMMERER, WY   CLOUDY    34  32  93 W24G31    30.17R WCI  21

$$




USA.gov is the U.S. government's official web portal to all federal, state and local government web resources and services.